Simultaneous Nadir Overpasses (SNOs) Predictions

Prediction of SNOs between GOES-17 and NOAA-19 Satellite Orbit:

Table of predicted SNOs for the next 14.0 days since TLE Epoch: 10/20/2024
Index Date Time (GOES-17) GOES-17 Lat,Lon NOAA-19 Lat,Lon Distance(km) Time Diff (sec)
1 10/21/2024 04:41:23 -0.03,-104.65 -0.72,-107.78 356.46 80
2 10/22/2024 04:28:57 -0.03,-104.65 -0.08,-104.75 12.48 80
3 10/23/2024 04:13:51 -0.03,-104.64 0.64,-101.73 332.03 80
4 10/25/2024 16:32:58 0.04,-104.70 0.43,-106.28 181.82 80
5 10/26/2024 16:23:13 0.04,-104.70 -0.29,-103.27 163.05 80
6 10/29/2024 04:42:17 -0.04,-104.64 -0.75,-107.82 361.95 80
7 10/30/2024 04:29:51 -0.04,-104.64 -0.06,-104.79 16.99 80
8 10/31/2024 04:14:45 -0.04,-104.64 0.63,-101.77 328.03 80
9 11/02/2024 16:33:50 0.03,-104.70 0.41,-106.32 185.34 80
